ICE689 BIKF-KMCO

Flight info

Callsign ICE689
Flight time N/A
Altitude 36000
Route RALOV3A RALOV DCT RAKIS DCT 63N030W DCT 61N040W 56N050W DCT TUDEP DCT CARAC M201 VIRST Y494 WHOOS/N0466F360 Y494 AYCHB Y493 JENKS DCT 30N080W DCT OMN BITHO7
Aircraft A21N/M-SDE3FGHIRWY/LB1

Departure

Time 2026-05-07 03:23
Airport Keflavik International Airport (BIKF)

Arrival

Time N/A
Airport Orlando International Airport (KMCO)
Time Latitude Longitude Altitude Speed Heading
2026-05-07 03:21 63.96533 -22.60541 163 ft 0 kts
2026-05-07 03:22 63.96536 -22.60541 163 ft 4 kts
2026-05-07 03:22 63.96825 -22.60537 163 ft 80 kts
2026-05-07 03:22 63.97615 -22.60546 167 ft 144 kts 360°
2026-05-07 03:22 63.98770 -22.60543 202 ft 192 kts
2026-05-07 03:23 63.99616 -22.60583 405 ft 206 kts
2026-05-07 03:23 64.01063 -22.60659 1156 ft 212 kts
2026-05-07 03:23 64.02472 -22.60625 2306 ft 200 kts
2026-05-07 03:24 64.03854 -22.60704 2859 ft 208 kts 349°
2026-05-07 03:24 64.05128 -22.62412 3143 ft 231 kts 309°
2026-05-07 03:24 64.05701 -22.65964 3451 ft 255 kts 273°
2026-05-07 03:24 64.05505 -22.70101 3991 ft 265 kts 261°
2026-05-07 03:25 64.05123 -22.74208 4656 ft 267 kts 259°
2026-05-07 03:25 64.04744 -22.78351 5392 ft 266 kts 259°
2026-05-07 03:25 64.04391 -22.82471 6108 ft 266 kts 261°
2026-05-07 03:25 64.04057 -22.86648 6677 ft 271 kts 261°
2026-05-07 03:26 64.03732 -22.90907 7293 ft 274 kts 262°
2026-05-07 03:26 64.03413 -22.95195 7912 ft 277 kts 262°
2026-05-07 03:26 64.03095 -22.99522 8513 ft 279 kts 262°
2026-05-07 03:26 64.02777 -23.03865 9096 ft 282 kts 262°
2026-05-07 03:27 64.02453 -23.08309 9675 ft 284 kts 262°
2026-05-07 03:27 64.02120 -23.12769 10183 ft 289 kts 263°
2026-05-07 03:27 64.01784 -23.17368 10463 ft 302 kts 263°
2026-05-07 03:27 64.01434 -23.22199 10716 ft 316 kts 263°
2026-05-07 03:28 64.01064 -23.27236 10960 ft 329 kts 263°
2026-05-07 03:28 64.00677 -23.32473 11201 ft 342 kts 263°
2026-05-07 03:28 64.00274 -23.37871 11599 ft 349 kts 263°
2026-05-07 03:28 63.99864 -23.43320 12139 ft 351 kts 263°
2026-05-07 03:29 63.99450 -23.48795 12666 ft 353 kts 263°
2026-05-07 03:29 63.99027 -23.54358 13170 ft 356 kts 263°
2026-05-07 03:29 63.98602 -23.59903 13650 ft 359 kts 263°
2026-05-07 03:29 63.98171 -23.65472 14093 ft 362 kts 263°
2026-05-07 03:30 63.97729 -23.71181 14560 ft 365 kts 263°
2026-05-07 03:30 63.97290 -23.76846 15023 ft 367 kts 263°
2026-05-07 03:30 63.96841 -23.82597 15481 ft 369 kts 263°
2026-05-07 03:30 63.96392 -23.88326 15924 ft 372 kts 263°
2026-05-07 03:31 63.95933 -23.94145 16363 ft 374 kts 263°
2026-05-07 03:31 63.95473 -23.99954 16788 ft 376 kts 263°
2026-05-07 03:31 63.95002 -24.05854 17209 ft 378 kts 263°
2026-05-07 03:31 63.94532 -24.11724 17615 ft 380 kts 263°
2026-05-07 03:32 63.94055 -24.17624 17989 ft 383 kts 263°
2026-05-07 03:32 63.93566 -24.23659 18348 ft 387 kts 263°
2026-05-07 03:32 63.93079 -24.29652 18727 ft 389 kts 263°
2026-05-07 03:32 63.92584 -24.35699 19111 ft 390 kts 263°
2026-05-07 03:33 63.92087 -24.41744 19483 ft 392 kts 263°
2026-05-07 03:33 63.91579 -24.47885 19846 ft 394 kts 263°
2026-05-07 03:33 63.91072 -24.53978 20196 ft 396 kts 263°
2026-05-07 03:33 63.90561 -24.60086 20540 ft 398 kts 263°
2026-05-07 03:34 63.90038 -24.66289 20883 ft 400 kts 262°
2026-05-07 03:34 63.89509 -24.72527 21209 ft 402 kts 262°
2026-05-07 03:34 63.88980 -24.78736 21529 ft 404 kts 262°
2026-05-07 03:34 63.88430 -24.84967 21859 ft 405 kts 260°
2026-05-07 03:35 63.87729 -24.91221 22187 ft 408 kts 257°
2026-05-07 03:35 63.86941 -24.97400 22495 ft 410 kts 256°
2026-05-07 03:35 63.86138 -25.03607 22791 ft 411 kts 256°
2026-05-07 03:35 63.85328 -25.09811 23087 ft 413 kts 257°
2026-05-07 03:36 63.84515 -25.16025 23388 ft 414 kts 257°
2026-05-07 03:36 63.83699 -25.22264 23669 ft 415 kts 257°
2026-05-07 03:36 63.82874 -25.28545 23941 ft 417 kts 257°
2026-05-07 03:36 63.82037 -25.34901 24211 ft 419 kts 257°
2026-05-07 03:37 63.81207 -25.41175 24478 ft 420 kts 257°
2026-05-07 03:37 63.80367 -25.47504 24740 ft 421 kts 257°
2026-05-07 03:37 63.79524 -25.53830 24990 ft 423 kts 257°
2026-05-07 03:37 63.78664 -25.60255 25239 ft 424 kts 257°
2026-05-07 03:38 63.77806 -25.66645 25482 ft 426 kts 256°
2026-05-07 03:38 63.76949 -25.73003 25708 ft 427 kts 256°
2026-05-07 03:38 63.76082 -25.79405 25940 ft 428 kts 256°
2026-05-07 03:38 63.75208 -25.85838 26187 ft 429 kts 256°
2026-05-07 03:39 63.74327 -25.92292 26416 ft 430 kts 256°
2026-05-07 03:39 63.73443 -25.98741 26603 ft 433 kts 256°
2026-05-07 03:39 63.72555 -26.05202 26763 ft 435 kts 256°
2026-05-07 03:39 63.71653 -26.11743 26963 ft 437 kts 256°
2026-05-07 03:40 63.70752 -26.18249 27172 ft 438 kts 256°
2026-05-07 03:40 63.69829 -26.24886 27378 ft 439 kts 256°
2026-05-07 03:40 63.68914 -26.31438 27577 ft 440 kts 256°
2026-05-07 03:40 63.67997 -26.37981 27789 ft 441 kts 256°
2026-05-07 03:41 63.67066 -26.44592 27993 ft 442 kts 256°
2026-05-07 03:41 63.66135 -26.51177 28183 ft 443 kts 256°
2026-05-07 03:41 63.65205 -26.57728 28369 ft 444 kts 256°
2026-05-07 03:41 63.64267 -26.64316 28555 ft 445 kts 256°
2026-05-07 03:42 63.63314 -26.70976 28732 ft 446 kts 255°
2026-05-07 03:42 63.62356 -26.77651 28905 ft 447 kts 255°
2026-05-07 03:42 63.61401 -26.84275 29076 ft 449 kts 255°
2026-05-07 03:42 63.60443 -26.90892 29256 ft 449 kts 255°
2026-05-07 03:43 63.59473 -26.97572 29423 ft 451 kts 255°
2026-05-07 03:43 63.58460 -27.04263 29583 ft 453 kts 252°
2026-05-07 03:43 63.57304 -27.10826 29791 ft 453 kts 250°
2026-05-07 03:43 63.56098 -27.17363 30023 ft 453 kts 250°
2026-05-07 03:44 63.54899 -27.23832 30241 ft 453 kts 250°
2026-05-07 03:44 63.53680 -27.30387 30454 ft 452 kts 250°
2026-05-07 03:44 63.52468 -27.36885 30670 ft 452 kts 250°
2026-05-07 03:44 63.51253 -27.43379 30882 ft 452 kts 250°
2026-05-07 03:45 63.50044 -27.49823 31088 ft 452 kts 250°
2026-05-07 03:45 63.48829 -27.56276 31293 ft 452 kts 250°
2026-05-07 03:45 63.47599 -27.62790 31497 ft 452 kts 250°
2026-05-07 03:45 63.46379 -27.69230 31696 ft 452 kts 249°
2026-05-07 03:46 63.45164 -27.75625 31886 ft 452 kts 249°
2026-05-07 03:46 63.43925 -27.82128 32082 ft 452 kts 249°
2026-05-07 03:46 63.42703 -27.88514 32281 ft 452 kts 249°
2026-05-07 03:46 63.41453 -27.95028 32481 ft 452 kts 249°
2026-05-07 03:47 63.40222 -28.01420 32672 ft 451 kts 249°
2026-05-07 03:47 63.38982 -28.07837 32860 ft 451 kts 249°
2026-05-07 03:47 63.37743 -28.14231 33046 ft 451 kts 249°
2026-05-07 03:47 63.36498 -28.20637 33229 ft 451 kts 249°
2026-05-07 03:48 63.35243 -28.27072 33412 ft 451 kts 249°
2026-05-07 03:48 63.34001 -28.33422 33588 ft 451 kts 249°
2026-05-07 03:48 63.32748 -28.39807 33754 ft 451 kts 249°
2026-05-07 03:48 63.31490 -28.46197 33923 ft 452 kts 249°
2026-05-07 03:49 63.30215 -28.52652 34096 ft 451 kts 249°
2026-05-07 03:49 63.28957 -28.59005 34266 ft 451 kts 249°
2026-05-07 03:49 63.27695 -28.65354 34432 ft 451 kts 249°
2026-05-07 03:49 63.26433 -28.71687 34589 ft 451 kts 249°
2026-05-07 03:50 63.25157 -28.78066 34741 ft 452 kts 249°
2026-05-07 03:50 63.23876 -28.84458 34879 ft 452 kts 248°
2026-05-07 03:50 63.22609 -28.90757 34987 ft 453 kts 248°
2026-05-07 03:50 63.21308 -28.97201 35100 ft 454 kts 248°
2026-05-07 03:51 63.20016 -29.03583 35221 ft 455 kts 248°
2026-05-07 03:51 63.18720 -29.09964 35343 ft 456 kts 248°
2026-05-07 03:51 63.17421 -29.16334 35459 ft 456 kts 248°
2026-05-07 03:52 63.14802 -29.29132 35611 ft 459 kts 248°
2026-05-07 03:52 63.12166 -29.41933 35830 ft 460 kts 248°
2026-05-07 03:52 63.10827 -29.48402 35942 ft 460 kts 248°
2026-05-07 03:53 63.09499 -29.54802 35972 ft 461 kts 248°
2026-05-07 03:53 63.06829 -29.67600 35977 ft 462 kts 248°
2026-05-07 03:54 63.04131 -29.80447 35977 ft 462 kts 248°
2026-05-07 03:54 63.01425 -29.93251 35977 ft 462 kts 248°
2026-05-07 03:55 62.99019 -30.06305 35977 ft 460 kts 254°
2026-05-07 03:55 62.96979 -30.19566 35978 ft 460 kts 254°
2026-05-07 03:56 62.94929 -30.32832 35978 ft 460 kts 254°
2026-05-07 03:56 62.92850 -30.46156 35979 ft 459 kts 254°
2026-05-07 03:57 62.90777 -30.59336 35979 ft 459 kts 254°
2026-05-07 03:57 62.88689 -30.72509 35978 ft 460 kts 253°
2026-05-07 03:58 62.86573 -30.85751 35978 ft 460 kts 253°
2026-05-07 03:58 62.84454 -30.98932 36015 ft 460 kts 253°
2026-05-07 03:59 62.82321 -31.12104 36068 ft 460 kts 253°
2026-05-07 03:59 62.80181 -31.25215 36096 ft 460 kts 253°
2026-05-07 04:00 62.78022 -31.38348 36109 ft 459 kts 253°
2026-05-07 04:00 62.75857 -31.51425 36113 ft 459 kts 253°
2026-05-07 04:01 62.73680 -31.64473 36115 ft 458 kts 254°
2026-05-07 04:01 62.71490 -31.77518 36116 ft 458 kts 253°
2026-05-07 04:02 62.69301 -31.90461 36116 ft 457 kts 253°
2026-05-07 04:02 62.67093 -32.03433 36116 ft 456 kts 253°
2026-05-07 04:03 62.64876 -32.16368 36116 ft 456 kts 253°
2026-05-07 04:03 62.62648 -32.29263 36116 ft 456 kts 253°
2026-05-07 04:04 62.60412 -32.42111 36116 ft 456 kts 253°
2026-05-07 04:04 62.58173 -32.54910 36116 ft 456 kts 253°
2026-05-07 04:05 62.55908 -32.67768 36115 ft 458 kts 252°
2026-05-07 04:05 62.53618 -32.80666 36116 ft 459 kts 252°
2026-05-07 04:06 62.51324 -32.93502 36116 ft 459 kts 252°
2026-05-07 04:06 62.49005 -33.06398 36116 ft 459 kts 252°
2026-05-07 04:07 62.46693 -33.19178 36116 ft 459 kts 252°
2026-05-07 04:07 62.44369 -33.31938 36116 ft 459 kts 252°
2026-05-07 04:08 62.42011 -33.44798 36116 ft 459 kts 252°
2026-05-07 04:08 62.39673 -33.57471 36116 ft 459 kts 252°
2026-05-07 04:09 62.37294 -33.70274 36116 ft 459 kts 251°
2026-05-07 04:09 62.34917 -33.82990 36116 ft 459 kts 251°
2026-05-07 04:10 62.32523 -33.95714 36116 ft 459 kts 251°
2026-05-07 04:10 62.30129 -34.08357 36116 ft 459 kts 251°
2026-05-07 04:11 62.27715 -34.21025 36116 ft 459 kts 251°
2026-05-07 04:11 62.25292 -34.33660 36116 ft 459 kts 251°
2026-05-07 04:12 62.22841 -34.46361 36117 ft 459 kts 252°
2026-05-07 04:12 62.20403 -34.58909 36117 ft 456 kts 252°
2026-05-07 04:13 62.17962 -34.71421 36116 ft 456 kts 251°
2026-05-07 04:13 62.15508 -34.83910 36116 ft 457 kts 251°
2026-05-07 04:14 62.13036 -34.96404 36116 ft 457 kts 251°
2026-05-07 04:14 62.10560 -35.08840 36116 ft 457 kts 251°
2026-05-07 04:15 62.08072 -35.21258 36116 ft 457 kts 251°
2026-05-07 04:15 62.05570 -35.33671 36116 ft 457 kts 251°
2026-05-07 04:16 62.03043 -35.46130 36117 ft 457 kts 251°
2026-05-07 04:16 62.00524 -35.58477 36117 ft 457 kts 251°
2026-05-07 04:17 61.97996 -35.70789 36116 ft 457 kts 250°
2026-05-07 04:17 61.95439 -35.83171 36116 ft 457 kts 250°
2026-05-07 04:18 61.92875 -35.95514 36116 ft 457 kts 250°
2026-05-07 04:18 61.90306 -36.07803 36116 ft 457 kts 250°
2026-05-07 04:19 61.87720 -36.20103 36115 ft 457 kts 250°
2026-05-07 04:19 61.85136 -36.32321 36115 ft 457 kts 250°
2026-05-07 04:20 61.82522 -36.44609 36115 ft 457 kts 250°
2026-05-07 04:20 61.79907 -36.56829 36115 ft 457 kts 250°
2026-05-07 04:21 61.75966 -36.75114 36116 ft 458 kts 249°
2026-05-07 04:21 61.73308 -36.87358 36116 ft 458 kts 249°
2026-05-07 04:22 61.70651 -36.99523 36116 ft 458 kts 249°
2026-05-07 04:22 61.67986 -37.11655 36116 ft 458 kts 249°
2026-05-07 04:23 61.65313 -37.23743 36118 ft 457 kts 250°
2026-05-07 04:23 61.62639 -37.35759 36116 ft 455 kts 250°
2026-05-07 04:24 61.59951 -37.47800 36116 ft 455 kts 250°
2026-05-07 04:24 61.57259 -37.59792 36085 ft 455 kts 250°
2026-05-07 04:25 61.54559 -37.71757 36044 ft 456 kts 249°
2026-05-07 04:25 61.51830 -37.83773 36022 ft 456 kts 249°
2026-05-07 04:26 61.49096 -37.95733 36013 ft 456 kts 249°
2026-05-07 04:26 61.46356 -38.07657 36009 ft 456 kts 249°
2026-05-07 04:27 61.43594 -38.19609 36008 ft 456 kts 249°
2026-05-07 04:27 61.40827 -38.31514 36008 ft 456 kts 249°
2026-05-07 04:28 61.38058 -38.43367 36008 ft 456 kts 249°
2026-05-07 04:28 61.35267 -38.55248 36008 ft 456 kts 249°
2026-05-07 04:29 61.32465 -38.67106 36008 ft 457 kts 248°
2026-05-07 04:29 61.29660 -38.78915 36007 ft 457 kts 248°
2026-05-07 04:30 61.26833 -38.90750 36007 ft 457 kts 248°
2026-05-07 04:30 61.23994 -39.02571 36007 ft 457 kts 248°
2026-05-07 04:31 61.21166 -39.14284 36008 ft 457 kts 248°
2026-05-07 04:31 61.18302 -39.26082 36008 ft 457 kts 248°
2026-05-07 04:32 61.15447 -39.37782 36008 ft 457 kts 248°
2026-05-07 04:32 61.12574 -39.49488 36008 ft 457 kts 248°
2026-05-07 04:33 61.09689 -39.61183 36008 ft 457 kts 248°
2026-05-07 04:33 61.06804 -39.72811 36008 ft 457 kts 247°
2026-05-07 04:34 61.03879 -39.84530 36007 ft 458 kts 247°
2026-05-07 04:34 61.00868 -39.95967 36007 ft 459 kts 243°
2026-05-07 04:35 60.97221 -40.06903 36008 ft 463 kts 237°
2026-05-07 04:35 60.93162 -40.17082 36008 ft 464 kts 235°
2026-05-07 04:36 60.89035 -40.27330 36006 ft 464 kts 235°
2026-05-07 04:36 60.84949 -40.37444 36007 ft 464 kts 235°
2026-05-07 04:37 60.80828 -40.47604 36007 ft 464 kts 235°
2026-05-07 04:37 60.76696 -40.57747 36007 ft 463 kts 235°
2026-05-07 04:38 60.72571 -40.67831 36007 ft 463 kts 234°
2026-05-07 04:38 60.68429 -40.77913 36008 ft 463 kts 234°
2026-05-07 04:39 60.64289 -40.87944 36008 ft 464 kts 234°
2026-05-07 04:39 60.60137 -40.97960 36008 ft 464 kts 234°
2026-05-07 04:40 60.55973 -41.07956 36015 ft 463 kts 237°
2026-05-07 04:40 60.55808 -41.08347 36024 ft 462 kts 235°
2026-05-07 07:40 60.53729 -41.13163 36094 ft 444 kts 236°
2026-05-07 07:40 60.51713 -41.17864 36033 ft 428 kts 237°
2026-05-07 07:40 60.49794 -41.22477 36018 ft 424 kts 238°
2026-05-07 07:41 60.45942 -41.31769 36007 ft 424 kts 237°
2026-05-07 07:41 60.42065 -41.41014 36062 ft 425 kts 237°
2026-05-07 07:41 60.40134 -41.45583 36207 ft 425 kts 237°
2026-05-07 07:42 60.38191 -41.50167 36260 ft 425 kts 237°
2026-05-07 07:42 60.34310 -41.59287 36267 ft 424 kts 237°
2026-05-07 07:43 60.30395 -41.68444 36268 ft 425 kts 236°
2026-05-07 07:43 60.26485 -41.77552 36268 ft 425 kts 236°
2026-05-07 07:44 60.22597 -41.86608 36272 ft 425 kts 234°
2026-05-07 07:44 60.18682 -41.95648 36268 ft 421 kts 234°
2026-05-07 07:45 60.14785 -42.04609 36268 ft 421 kts 234°
2026-05-07 07:45 60.10895 -42.13526 36268 ft 421 kts 234°
2026-05-07 07:46 60.07000 -42.22422 36268 ft 421 kts 234°
2026-05-07 07:46 60.03077 -42.31360 36268 ft 421 kts 234°
2026-05-07 07:47 59.99165 -42.40236 36268 ft 421 kts 234°
2026-05-07 07:47 59.95245 -42.49071 36268 ft 421 kts 234°
2026-05-07 07:48 59.91311 -42.57913 36269 ft 421 kts 234°
2026-05-07 07:48 59.87378 -42.66718 36268 ft 421 kts 233°
2026-05-07 07:49 59.83424 -42.75540 36268 ft 422 kts 233°
2026-05-07 07:49 59.79496 -42.84278 36268 ft 420 kts 232°
2026-05-07 07:50 59.75539 -42.93033 36268 ft 420 kts 232°
2026-05-07 07:50 59.71594 -43.01719 36267 ft 422 kts 233°
2026-05-07 07:51 59.67621 -43.10451 36268 ft 422 kts 233°
2026-05-07 07:51 59.63634 -43.19180 36268 ft 422 kts 233°
2026-05-07 07:52 59.59665 -43.27837 36268 ft 422 kts 233°
2026-05-07 07:52 59.55660 -43.36552 36268 ft 422 kts 233°
2026-05-07 07:53 59.51684 -43.45156 36268 ft 422 kts 233°
2026-05-07 07:53 59.47655 -43.53841 36268 ft 422 kts 233°
2026-05-07 07:54 59.43665 -43.62410 36267 ft 422 kts 233°
2026-05-07 07:54 59.39652 -43.70996 36268 ft 423 kts 232°
2026-05-07 07:55 59.35622 -43.79586 36267 ft 423 kts 231°
2026-05-07 07:55 59.31574 -43.88206 36268 ft 425 kts 231°
2026-05-07 07:56 59.27519 -43.96778 36268 ft 425 kts 231°
2026-05-07 07:56 59.23462 -44.05323 36268 ft 425 kts 231°
2026-05-07 07:57 59.19398 -44.13859 36268 ft 426 kts 231°
2026-05-07 07:57 59.15314 -44.22400 36268 ft 426 kts 231°
2026-05-07 07:58 59.11230 -44.30913 36269 ft 426 kts 230°
2026-05-07 07:58 59.07131 -44.39429 36268 ft 425 kts 230°
2026-05-07 07:59 59.03059 -44.47845 36268 ft 425 kts 230°
2026-05-07 07:59 58.98957 -44.56296 36268 ft 425 kts 230°
2026-05-07 08:00 58.94855 -44.64716 36269 ft 425 kts 230°
2026-05-07 08:00 58.90738 -44.73137 36268 ft 425 kts 230°
2026-05-07 08:01 58.86718 -44.81330 36269 ft 423 kts 229°
2026-05-07 08:01 58.82629 -44.89634 36268 ft 423 kts 229°
2026-05-07 08:02 58.78518 -44.97947 36268 ft 423 kts 229°
2026-05-07 08:02 58.74413 -45.06220 36268 ft 423 kts 229°
2026-05-07 08:03 58.70302 -45.14467 36268 ft 421 kts 230°
2026-05-07 08:03 58.66192 -45.22694 36268 ft 421 kts 230°
2026-05-07 08:04 58.62105 -45.30845 36271 ft 420 kts 230°
2026-05-07 08:04 58.58015 -45.38969 36268 ft 417 kts 230°
2026-05-07 08:05 58.53943 -45.47034 36268 ft 417 kts 230°
2026-05-07 08:05 58.49855 -45.55098 36268 ft 417 kts 230°
2026-05-07 08:06 58.45760 -45.63148 36268 ft 417 kts 230°
2026-05-07 08:06 58.41676 -45.71146 36268 ft 417 kts 229°
2026-05-07 08:07 58.37553 -45.79193 36271 ft 416 kts 229°
2026-05-07 08:07 58.33491 -45.87089 36268 ft 413 kts 229°
2026-05-07 08:08 58.29424 -45.94975 36264 ft 411 kts 229°
2026-05-07 08:08 58.25346 -46.02853 36267 ft 413 kts 229°
2026-05-07 08:09 58.21290 -46.10663 36269 ft 413 kts 229°
2026-05-07 08:09 58.17202 -46.18507 36268 ft 411 kts 229°
2026-05-07 08:10 58.13152 -46.26246 36268 ft 411 kts 229°
2026-05-07 08:10 58.09081 -46.34011 36269 ft 409 kts 228°
2026-05-07 08:11 58.05019 -46.41718 36268 ft 408 kts 228°
2026-05-07 08:11 58.00960 -46.49395 36268 ft 408 kts 228°
2026-05-07 08:12 57.96892 -46.57063 36268 ft 408 kts 228°
2026-05-07 08:12 57.92831 -46.64694 36269 ft 408 kts 228°
2026-05-07 08:13 57.88758 -46.72320 36268 ft 408 kts 227°
2026-05-07 08:13 57.84695 -46.79902 36268 ft 408 kts 227°
2026-05-07 08:14 57.80644 -46.87445 36268 ft 405 kts 227°
2026-05-07 08:14 57.76571 -46.94991 36268 ft 404 kts 227°
2026-05-07 08:15 57.72538 -47.02442 36268 ft 404 kts 227°
2026-05-07 08:15 57.68470 -47.09923 36267 ft 405 kts 227°
2026-05-07 08:16 57.64415 -47.17361 36268 ft 405 kts 227°
2026-05-07 08:16 57.60342 -47.24809 36268 ft 405 kts 227°
2026-05-07 08:17 57.56264 -47.32251 36268 ft 404 kts 226°
2026-05-07 08:17 57.52192 -47.39648 36268 ft 404 kts 226°
2026-05-07 08:18 57.48119 -47.47024 36268 ft 404 kts 226°
2026-05-07 08:18 57.44035 -47.54397 36268 ft 404 kts 226°
2026-05-07 08:19 57.39958 -47.61733 36268 ft 404 kts 226°
2026-05-07 08:19 57.35878 -47.69049 36268 ft 404 kts 226°
2026-05-07 08:20 57.31777 -47.76380 36268 ft 404 kts 226°
2026-05-07 08:20 57.27705 -47.83636 36268 ft 401 kts 226°
2026-05-07 08:21 57.23629 -47.90876 36268 ft 401 kts 226°
2026-05-07 08:21 57.19549 -47.98105 36266 ft 402 kts 225°
2026-05-07 08:22 57.15446 -48.05346 36268 ft 403 kts 225°
2026-05-07 08:22 57.11334 -48.12570 36268 ft 403 kts 225°
2026-05-07 08:23 57.07254 -48.19728 36268 ft 403 kts 225°
2026-05-07 08:23 57.03143 -48.26917 36268 ft 403 kts 225°
2026-05-07 08:24 56.99024 -48.34105 36268 ft 401 kts 225°
2026-05-07 08:24 56.94942 -48.41191 36268 ft 401 kts 225°
2026-05-07 08:25 56.90825 -48.48315 36268 ft 401 kts 225°
2026-05-07 08:25 56.86736 -48.55371 36268 ft 401 kts 225°
2026-05-07 08:26 56.80560 -48.65982 36268 ft 401 kts 224°
2026-05-07 08:26 56.76441 -48.73033 36268 ft 401 kts 224°
2026-05-07 08:27 56.72340 -48.80036 36267 ft 401 kts 224°
2026-05-07 08:27 56.68193 -48.87085 36268 ft 401 kts 224°
2026-05-07 08:28 56.64086 -48.94045 36268 ft 401 kts 224°
2026-05-07 08:28 56.59931 -49.01066 36268 ft 401 kts 224°
2026-05-07 08:29 56.55777 -49.08067 36268 ft 401 kts 224°
2026-05-07 08:29 56.51631 -49.15030 36268 ft 401 kts 224°
2026-05-07 08:30 56.47458 -49.22024 36268 ft 402 kts 224°
2026-05-07 08:30 56.43301 -49.28970 36268 ft 402 kts 224°
2026-05-07 08:31 56.39119 -49.35933 36268 ft 402 kts 224°
2026-05-07 08:31 56.34974 -49.42812 36268 ft 402 kts 224°
2026-05-07 08:32 56.30796 -49.49722 36268 ft 402 kts 224°
2026-05-07 08:32 56.26595 -49.56649 36268 ft 402 kts 224°
2026-05-07 08:33 56.22408 -49.63530 36268 ft 402 kts 224°
2026-05-07 08:33 56.18206 -49.70414 36268 ft 404 kts 223°
2026-05-07 08:34 56.13972 -49.77329 36268 ft 404 kts 223°
2026-05-07 08:34 56.09771 -49.84166 36268 ft 402 kts 223°
2026-05-07 08:35 56.05570 -49.90911 36267 ft 402 kts 221°
2026-05-07 08:35 56.01035 -49.97084 36268 ft 403 kts 216°
2026-05-07 08:36 55.96159 -50.02370 36268 ft 405 kts 210°
2026-05-07 08:36 55.90981 -50.06728 36268 ft 406 kts 205°
2026-05-07 08:37 55.85694 -50.10700 36262 ft 406 kts 206°
2026-05-07 08:37 55.80468 -50.14650 36097 ft 406 kts 206°
2026-05-07 08:38 55.75174 -50.18630 35973 ft 407 kts 206°
2026-05-07 08:38 55.69876 -50.22591 35919 ft 408 kts 206°
2026-05-07 08:39 55.64578 -50.26538 35897 ft 408 kts 206°
2026-05-07 08:39 55.59275 -50.30471 35888 ft 404 kts 206°
2026-05-07 08:40 55.54026 -50.34358 35883 ft 403 kts 206°
2026-05-07 08:40 55.48772 -50.38237 35881 ft 403 kts 206°
2026-05-07 08:41 55.43541 -50.42087 35881 ft 403 kts 206°
2026-05-07 08:41 55.38285 -50.45943 35881 ft 403 kts 206°
2026-05-07 08:42 55.33023 -50.49793 35881 ft 403 kts 206°
2026-05-07 08:42 55.27770 -50.53625 35881 ft 403 kts 206°
2026-05-07 08:43 55.22534 -50.57434 35879 ft 404 kts 206°
2026-05-07 08:43 55.17415 -50.61147 35880 ft 405 kts 206°
2026-05-07 08:44 55.12204 -50.64916 35881 ft 405 kts 206°
2026-05-07 08:44 55.06902 -50.68734 35881 ft 406 kts 205°
2026-05-07 08:45 55.01619 -50.72528 35880 ft 406 kts 205°
2026-05-07 08:45 54.96318 -50.76324 35880 ft 406 kts 205°
2026-05-07 08:46 54.91028 -50.80104 35881 ft 403 kts 205°
2026-05-07 08:46 54.85777 -50.83847 35881 ft 402 kts 205°
2026-05-07 08:47 54.80551 -50.87563 35881 ft 402 kts 205°
2026-05-07 08:47 54.75321 -50.91272 35880 ft 402 kts 205°
2026-05-07 08:48 54.70034 -50.95013 35879 ft 405 kts 205°
2026-05-07 08:48 54.64701 -50.98772 35880 ft 406 kts 205°
2026-05-07 08:49 54.59369 -51.02520 35880 ft 406 kts 205°
2026-05-07 08:49 54.54060 -51.06241 35880 ft 406 kts 205°
2026-05-07 08:50 54.48747 -51.09954 35880 ft 406 kts 205°
2026-05-07 08:50 54.43418 -51.13669 35880 ft 406 kts 205°
2026-05-07 08:51 54.38119 -51.17352 35880 ft 406 kts 205°
2026-05-07 08:51 54.32788 -51.21047 35880 ft 406 kts 207°
2026-05-07 08:52 54.27483 -51.24711 35896 ft 406 kts 205°
2026-05-07 08:52 54.22207 -51.28352 35909 ft 406 kts 205°
2026-05-07 08:53 54.16848 -51.32042 35919 ft 410 kts 205°
2026-05-07 08:53 54.11453 -51.35746 35923 ft 411 kts 205°
2026-05-07 08:54 54.06054 -51.39439 35925 ft 411 kts 205°
2026-05-07 08:54 54.00660 -51.43116 35925 ft 411 kts 205°
2026-05-07 08:55 53.95288 -51.46769 35925 ft 411 kts 205°
2026-05-07 08:55 53.89904 -51.50418 35925 ft 411 kts 205°
2026-05-07 08:56 53.84512 -51.54063 35925 ft 411 kts 205°
2026-05-07 08:56 53.79140 -51.57683 35925 ft 411 kts 205°
2026-05-07 08:57 53.73751 -51.61306 35925 ft 411 kts 205°
2026-05-07 08:57 53.68332 -51.64936 35924 ft 411 kts 206°
2026-05-07 08:58 53.62959 -51.68529 35925 ft 412 kts 205°
2026-05-07 08:58 53.57556 -51.72133 35925 ft 412 kts 205°
2026-05-07 08:59 53.52163 -51.75711 35926 ft 412 kts 205°
2026-05-07 08:59 53.46756 -51.79298 35925 ft 412 kts 205°
2026-05-07 09:00 53.41352 -51.82872 35925 ft 412 kts 205°
2026-05-07 09:00 53.35932 -51.86447 35925 ft 412 kts 205°
2026-05-07 09:01 53.30541 -51.89993 35925 ft 412 kts 205°
2026-05-07 09:01 53.25102 -51.93560 35925 ft 412 kts 205°
2026-05-07 09:02 53.19671 -51.97114 35924 ft 415 kts 204°
2026-05-07 09:02 53.14214 -52.00666 35925 ft 416 kts 204°
2026-05-07 09:03 53.08705 -52.04245 35925 ft 416 kts 204°
2026-05-07 09:03 53.03256 -52.07778 35925 ft 416 kts 204°
2026-05-07 09:04 52.97777 -52.11322 35925 ft 416 kts 204°
2026-05-07 09:04 52.92328 -52.14837 35925 ft 416 kts 204°
2026-05-07 09:05 52.86837 -52.18370 35925 ft 416 kts 205°
2026-05-07 09:05 52.81397 -52.21860 35925 ft 416 kts 205°
2026-05-07 09:06 52.75925 -52.25359 35922 ft 416 kts 205°
2026-05-07 09:06 52.70437 -52.28859 35923 ft 418 kts 205°
2026-05-07 09:07 52.64910 -52.32378 35925 ft 418 kts 205°
2026-05-07 09:07 52.59398 -52.35881 35925 ft 418 kts 205°
2026-05-07 09:08 52.53895 -52.39366 35925 ft 418 kts 205°
2026-05-07 09:08 52.48394 -52.42839 35925 ft 418 kts 205°
2026-05-07 09:09 52.42895 -52.46302 35925 ft 418 kts 205°
2026-05-07 09:09 52.37399 -52.49753 35925 ft 418 kts 205°
2026-05-07 09:10 52.31860 -52.53222 35925 ft 418 kts 205°
2026-05-07 09:10 52.26326 -52.56679 35925 ft 418 kts 205°
2026-05-07 09:11 52.20811 -52.60115 35923 ft 419 kts 205°
2026-05-07 09:11 52.15283 -52.63555 35924 ft 422 kts 205°
2026-05-07 09:12 52.09718 -52.67000 35925 ft 422 kts 204°
2026-05-07 09:12 52.04133 -52.70450 35925 ft 422 kts 204°
2026-05-07 09:13 51.98595 -52.73861 35924 ft 422 kts 205°
2026-05-07 09:13 51.92992 -52.77308 35925 ft 422 kts 204°
2026-05-07 09:14 51.87436 -52.80718 35925 ft 422 kts 204°
2026-05-07 09:14 51.81881 -52.84115 35925 ft 422 kts 204°
2026-05-07 09:15 51.76283 -52.87529 35925 ft 422 kts 204°
2026-05-07 09:15 51.70719 -52.90913 35925 ft 422 kts 204°
2026-05-07 09:16 51.65110 -52.94319 35924 ft 425 kts 204°
2026-05-07 09:16 51.59478 -52.97724 35925 ft 425 kts 204°
2026-05-07 09:17 51.53878 -53.01101 35925 ft 425 kts 204°
2026-05-07 09:17 51.48232 -53.04498 35925 ft 425 kts 204°
2026-05-07 09:18 51.42616 -53.07869 35925 ft 425 kts 204°
2026-05-07 09:18 51.36985 -53.11239 35925 ft 425 kts 204°
2026-05-07 09:19 51.31376 -53.14588 35925 ft 425 kts 204°
2026-05-07 09:19 51.25716 -53.17956 35925 ft 425 kts 204°
2026-05-07 09:20 51.20089 -53.21357 35924 ft 425 kts 206°
2026-05-07 09:20 51.14688 -53.25460 35942 ft 423 kts 212°
2026-05-07 09:21 51.09592 -53.30357 35958 ft 422 kts 215°
2026-05-07 09:21 51.04539 -53.35360 35966 ft 422 kts 215°
2026-05-07 09:22 50.99457 -53.40375 35969 ft 422 kts 215°
2026-05-07 09:22 50.94420 -53.45336 35971 ft 422 kts 215°
2026-05-07 09:23 50.89357 -53.50310 35971 ft 422 kts 215°
2026-05-07 09:23 50.84291 -53.55273 35971 ft 422 kts 215°
2026-05-07 09:24 50.79218 -53.60232 35970 ft 422 kts 215°
2026-05-07 09:24 50.74144 -53.65179 35970 ft 422 kts 214°
2026-05-07 09:25 50.69087 -53.70095 35970 ft 422 kts 214°
2026-05-07 09:25 50.63988 -53.75043 35971 ft 423 kts 214°
2026-05-07 09:26 50.58911 -53.79959 35971 ft 423 kts 214°
2026-05-07 09:26 50.53821 -53.84874 35971 ft 423 kts 214°
2026-05-07 09:27 50.48719 -53.89785 35970 ft 423 kts 214°
2026-05-07 09:28 50.41108 -53.97083 35987 ft 424 kts 214°
2026-05-07 09:28 50.36036 -54.01933 35994 ft 423 kts 214°
2026-05-07 09:29 50.30971 -54.06765 35997 ft 423 kts 214°
2026-05-07 09:29 50.25872 -54.11617 35999 ft 423 kts 214°
2026-05-07 09:30 50.20760 -54.16468 35999 ft 423 kts 214°
2026-05-07 09:30 50.15641 -54.21315 35999 ft 423 kts 214°
2026-05-07 09:31 50.10516 -54.26156 35999 ft 423 kts 214°
2026-05-07 09:31 50.05380 -54.30994 35999 ft 423 kts 214°
2026-05-07 09:32 50.00234 -54.35829 35999 ft 423 kts 214°
2026-05-07 09:32 49.95090 -54.40650 35999 ft 423 kts 214°
2026-05-07 09:33 49.89989 -54.45420 35999 ft 423 kts 214°
2026-05-07 09:33 49.84822 -54.50237 35999 ft 423 kts 214°
2026-05-07 09:34 49.79813 -54.54897 35999 ft 423 kts 214°
2026-05-07 09:34 49.74680 -54.59659 35999 ft 423 kts 214°
2026-05-07 09:35 49.69536 -54.64421 35999 ft 423 kts 214°
2026-05-07 09:35 49.64461 -54.69106 35999 ft 424 kts 214°
2026-05-07 09:36 49.59361 -54.73804 35999 ft 424 kts 214°
2026-05-07 09:36 49.54234 -54.78514 35999 ft 424 kts 214°
2026-05-07 09:37 49.49102 -54.83218 35999 ft 424 kts 214°
2026-05-07 09:37 49.43979 -54.87903 35999 ft 424 kts 214°
2026-05-07 09:38 49.38846 -54.92584 35999 ft 424 kts 214°
2026-05-07 09:38 49.33670 -54.97293 35999 ft 424 kts 214°
2026-05-07 09:39 49.28554 -55.01936 35999 ft 424 kts 214°
2026-05-07 09:39 49.23410 -55.06592 35999 ft 424 kts 214°
2026-05-07 09:40 49.18250 -55.11253 35999 ft 424 kts 214°
2026-05-07 09:40 49.13099 -55.15893 35999 ft 424 kts 214°
2026-05-07 09:41 49.07943 -55.20527 35999 ft 424 kts 214°
2026-05-07 09:41 49.02768 -55.25167 36026 ft 424 kts 214°
2026-05-07 09:42 48.97591 -55.29796 36075 ft 423 kts 214°
2026-05-07 09:42 48.92424 -55.34406 36101 ft 423 kts 214°
2026-05-07 09:43 48.87319 -55.38949 36112 ft 423 kts 214°
2026-05-07 09:43 48.82187 -55.43506 36116 ft 423 kts 214°
2026-05-07 09:44 48.77041 -55.48063 36118 ft 423 kts 214°
2026-05-07 09:44 48.71827 -55.52671 36118 ft 423 kts 214°
2026-05-07 09:45 48.66706 -55.57185 36118 ft 423 kts 214°
2026-05-07 09:45 48.61545 -55.61723 36119 ft 423 kts 214°
2026-05-07 09:46 48.56430 -55.66211 36119 ft 423 kts 213°
2026-05-07 09:46 48.51324 -55.70679 36119 ft 423 kts 213°
2026-05-07 09:47 48.46175 -55.75176 36119 ft 423 kts 213°
2026-05-07 09:47 48.40987 -55.79695 36119 ft 423 kts 213°
2026-05-07 09:48 48.35766 -55.84233 36119 ft 423 kts 213°
2026-05-07 09:48 48.30592 -55.88718 36091 ft 424 kts 213°
2026-05-07 09:49 48.25510 -55.93114 36046 ft 424 kts 213°
2026-05-07 09:49 48.20316 -55.97596 36020 ft 424 kts 213°
2026-05-07 09:50 48.15093 -56.02092 36008 ft 424 kts 213°
2026-05-07 09:50 48.10013 -56.06455 36003 ft 425 kts 213°
2026-05-07 09:51 48.04809 -56.10914 36001 ft 425 kts 213°
2026-05-07 09:51 47.99632 -56.15340 36001 ft 425 kts 213°
2026-05-07 09:52 47.94464 -56.19772 36008 ft 409 kts 211°
2026-05-07 09:52 47.89546 -56.23947 36003 ft 402 kts 211°
2026-05-07 09:53 47.84604 -56.28141 36001 ft 402 kts 210°
2026-05-07 09:53 47.79719 -56.32276 36001 ft 403 kts 210°
2026-05-07 09:54 47.74807 -56.36424 36000 ft 403 kts 210°
2026-05-07 09:54 47.69830 -56.40614 35999 ft 405 kts 211°
2026-05-07 09:55 47.64909 -56.44755 36000 ft 406 kts 211°
2026-05-07 09:55 47.59925 -56.48940 36000 ft 406 kts 211°
2026-05-07 09:56 47.54922 -56.53129 36000 ft 407 kts 211°
2026-05-07 09:56 47.49920 -56.57310 36001 ft 407 kts 211°
2026-05-07 09:57 47.44905 -56.61492 36001 ft 407 kts 211°
2026-05-07 09:57 47.39936 -56.65628 36001 ft 407 kts 210°
2026-05-07 09:58 47.34931 -56.69783 36001 ft 407 kts 210°
2026-05-07 09:58 47.29916 -56.73940 36001 ft 407 kts 210°
2026-05-07 09:59 47.24912 -56.78080 36003 ft 407 kts 210°
2026-05-07 09:59 47.19923 -56.82192 36002 ft 402 kts 210°
2026-05-07 10:00 47.14968 -56.86270 36001 ft 401 kts 210°
2026-05-07 10:00 47.10023 -56.90335 36001 ft 401 kts 210°
2026-05-07 10:01 47.05097 -56.94374 36001 ft 401 kts 210°
2026-05-07 10:01 47.00148 -56.98423 36001 ft 401 kts 210°
2026-05-07 10:02 46.95181 -57.02478 36001 ft 401 kts 210°
2026-05-07 10:02 46.90233 -57.06508 36001 ft 401 kts 210°
2026-05-07 10:03 46.85467 -57.10384 36042 ft 402 kts 210°
2026-05-07 10:03 46.80515 -57.14403 36100 ft 401 kts 210°
2026-05-07 10:04 46.75577 -57.18400 36132 ft 401 kts 210°
2026-05-07 10:04 46.70629 -57.22391 36146 ft 399 kts 211°
2026-05-07 10:05 46.65701 -57.26364 36152 ft 398 kts 211°
2026-05-07 10:05 46.60781 -57.30312 36154 ft 398 kts 212°
2026-05-07 10:06 46.55860 -57.34269 36155 ft 398 kts 212°
2026-05-07 10:06 46.50915 -57.38235 36155 ft 398 kts 212°
2026-05-07 10:07 46.45988 -57.42175 36155 ft 398 kts 212°
2026-05-07 10:07 46.41048 -57.46116 36156 ft 398 kts 212°
2026-05-07 10:08 46.36126 -57.50034 36156 ft 398 kts 212°
2026-05-07 10:08 46.31195 -57.53952 36156 ft 398 kts 212°
2026-05-07 10:09 46.26232 -57.57885 36156 ft 398 kts 212°
2026-05-07 10:09 46.21294 -57.61786 36153 ft 403 kts 212°
2026-05-07 10:10 46.16335 -57.65700 36157 ft 405 kts 211°
2026-05-07 10:10 46.11319 -57.69655 36156 ft 405 kts 211°
2026-05-07 10:11 46.06287 -57.73614 36155 ft 405 kts 211°
2026-05-07 10:11 46.01267 -57.77544 36156 ft 405 kts 212°
2026-05-07 10:12 45.96225 -57.81490 36155 ft 405 kts 212°
2026-05-07 10:12 45.91215 -57.85404 36155 ft 405 kts 212°
2026-05-07 10:13 45.86287 -57.89246 36156 ft 405 kts 212°
2026-05-07 10:13 45.81227 -57.93183 36156 ft 405 kts 212°
2026-05-07 10:14 45.76226 -57.97066 36156 ft 405 kts 212°
2026-05-07 10:14 45.71183 -58.00988 36151 ft 407 kts 211°
2026-05-07 10:15 45.66058 -58.04955 36155 ft 411 kts 211°
2026-05-07 10:15 45.60926 -58.08906 36155 ft 411 kts 211°
2026-05-07 10:16 45.55810 -58.12841 36155 ft 411 kts 211°
2026-05-07 10:16 45.50702 -58.16764 36155 ft 411 kts 211°
2026-05-07 10:17 45.45585 -58.20687 36156 ft 411 kts 211°
2026-05-07 10:17 45.40418 -58.24636 36130 ft 412 kts 211°
2026-05-07 10:18 45.35330 -58.28528 36065 ft 406 kts 210°
2026-05-07 10:18 45.30270 -58.32382 36023 ft 403 kts 210°
2026-05-07 10:19 45.25264 -58.36188 36004 ft 403 kts 210°
2026-05-07 10:19 45.20185 -58.40028 35993 ft 410 kts 211°
2026-05-07 10:20 45.15031 -58.43943 35992 ft 412 kts 211°
2026-05-07 10:20 45.09917 -58.47814 35991 ft 413 kts 211°
2026-05-07 10:21 45.04755 -58.51709 35990 ft 413 kts 211°
2026-05-07 10:21 44.99594 -58.55594 35990 ft 413 kts 211°
2026-05-07 10:22 44.94466 -58.59447 35990 ft 413 kts 211°
2026-05-07 10:22 44.89336 -58.63292 35991 ft 413 kts 211°
2026-05-07 10:23 44.84159 -58.67163 35991 ft 413 kts 210°
2026-05-07 10:23 44.79021 -58.70999 35990 ft 413 kts 210°
2026-05-07 10:24 44.73856 -58.74847 35990 ft 413 kts 210°
2026-05-07 10:24 44.68646 -58.78691 35993 ft 420 kts 212°
2026-05-07 10:25 44.63394 -58.82590 36014 ft 420 kts 213°
2026-05-07 10:25 44.58141 -58.86490 36030 ft 420 kts 213°
2026-05-07 10:26 44.52865 -58.90393 36039 ft 420 kts 213°
2026-05-07 10:26 44.47628 -58.94256 36042 ft 420 kts 213°
2026-05-07 10:27 44.42372 -58.98124 36044 ft 420 kts 213°
2026-05-07 10:27 44.37105 -59.01992 36045 ft 420 kts 213°
2026-05-07 10:28 44.31858 -59.05838 36045 ft 420 kts 213°
2026-05-07 10:28 44.26598 -59.09685 36045 ft 420 kts 213°
2026-05-07 10:29 44.21319 -59.13523 36045 ft 421 kts 214°
2026-05-07 10:29 44.16022 -59.17387 36045 ft 421 kts 214°
2026-05-07 10:30 44.08100 -59.23151 36045 ft 421 kts 214°
2026-05-07 10:30 44.02807 -59.26989 36045 ft 421 kts 214°
2026-05-07 10:31 43.97536 -59.30795 36045 ft 417 kts 214°
2026-05-07 10:31 43.92302 -59.34569 36047 ft 418 kts 214°
2026-05-07 10:32 43.87064 -59.38348 36045 ft 418 kts 214°
2026-05-07 10:32 43.81778 -59.42149 36045 ft 418 kts 214°
2026-05-07 10:33 43.76548 -59.45902 36045 ft 418 kts 214°
2026-05-07 10:33 43.71267 -59.49678 36044 ft 419 kts 215°
2026-05-07 10:34 43.65987 -59.53451 36044 ft 420 kts 215°
2026-05-07 10:34 43.60724 -59.57206 36045 ft 420 kts 215°
2026-05-07 10:35 43.55411 -59.60989 36045 ft 420 kts 215°
2026-05-07 10:35 43.50120 -59.64748 36045 ft 420 kts 215°
2026-05-07 10:36 43.44809 -59.68514 36045 ft 421 kts 214°
2026-05-07 10:36 43.39477 -59.72287 36045 ft 421 kts 214°
2026-05-07 10:37 43.34179 -59.76028 36049 ft 420 kts 214°
2026-05-07 10:37 43.28925 -59.79726 36045 ft 414 kts 214°
2026-05-07 10:38 43.23687 -59.83413 36045 ft 414 kts 214°
2026-05-07 10:38 43.18425 -59.87108 36048 ft 416 kts 214°
2026-05-07 10:39 43.13194 -59.90781 36045 ft 416 kts 214°
2026-05-07 10:39 43.07930 -59.94480 36044 ft 415 kts 216°
2026-05-07 10:40 43.03037 -59.98760 36044 ft 407 kts 224°
2026-05-07 10:40 42.98823 -60.03783 36045 ft 400 kts 231°
2026-05-07 10:41 42.95170 -60.09615 36045 ft 394 kts 239°
2026-05-07 10:41 42.91972 -60.15857 36045 ft 393 kts 240°
2026-05-07 10:42 42.88782 -60.22131 36045 ft 393 kts 240°
2026-05-07 10:42 42.85594 -60.28395 36047 ft 391 kts 240°
2026-05-07 10:43 42.82453 -60.34553 36045 ft 388 kts 240°
2026-05-07 10:43 42.79319 -60.40692 36044 ft 387 kts 240°
2026-05-07 10:44 42.76152 -60.46883 36216 ft 389 kts 240°
2026-05-07 10:44 42.74585 -60.49941 36433 ft 388 kts 240°
2026-05-07 10:44 42.73009 -60.53029 36575 ft 389 kts 239°
2026-05-07 10:45 42.69820 -60.59233 36717 ft 394 kts 238°
2026-05-07 10:45 42.66598 -60.65477 36845 ft 399 kts 238°
2026-05-07 10:46 42.64948 -60.68660 36976 ft 400 kts 237°
2026-05-07 10:46 42.63323 -60.71799 37165 ft 399 kts 238°
2026-05-07 10:46 42.60073 -60.78106 37377 ft 402 kts 238°
2026-05-07 10:47 42.58440 -60.81265 37639 ft 398 kts 238°
2026-05-07 10:47 42.56821 -60.84387 37879 ft 396 kts 238°
2026-05-07 10:47 42.55208 -60.87495 38029 ft 395 kts 238°
2026-05-07 10:47 42.53592 -60.90606 38040 ft 396 kts 238°
2026-05-07 10:48 42.50361 -60.96817 38044 ft 396 kts 238°
2026-05-07 10:48 42.47108 -61.03056 38045 ft 396 kts 238°
2026-05-07 10:49 42.43860 -61.09272 38046 ft 396 kts 238°
2026-05-07 10:49 42.40634 -61.15432 38046 ft 396 kts 238°
2026-05-07 10:50 42.37275 -61.21528 38045 ft 398 kts 234°
2026-05-07 10:50 42.33636 -61.27352 38046 ft 398 kts 233°
2026-05-07 10:51 42.29991 -61.33150 38046 ft 394 kts 234°
2026-05-07 10:51 42.26378 -61.38909 38046 ft 393 kts 234°
2026-05-07 10:52 42.22758 -61.44667 38040 ft 395 kts 234°
2026-05-07 10:52 42.19100 -61.50468 38045 ft 400 kts 234°
2026-05-07 10:53 42.15416 -61.56291 38046 ft 400 kts 234°
2026-05-07 10:53 42.11745 -61.62073 38058 ft 400 kts 234°
2026-05-07 10:54 42.08040 -61.67918 38049 ft 400 kts 233°
2026-05-07 10:54 42.04353 -61.73718 38046 ft 401 kts 233°
2026-05-07 10:55 42.00673 -61.79489 38047 ft 400 kts 234°
2026-05-07 10:55 41.96970 -61.85283 38045 ft 399 kts 234°
2026-05-07 10:56 41.93293 -61.91031 38045 ft 399 kts 234°
2026-05-07 10:56 41.89591 -61.96807 38046 ft 399 kts 234°
2026-05-07 10:57 41.85904 -62.02548 38046 ft 399 kts 234°
2026-05-07 10:57 41.82230 -62.08257 38045 ft 399 kts 234°
2026-05-07 10:58 41.78520 -62.14010 38045 ft 399 kts 234°
2026-05-07 10:58 41.74826 -62.19727 38045 ft 399 kts 234°
2026-05-07 10:59 41.71105 -62.25481 38044 ft 403 kts 233°
2026-05-07 10:59 41.67383 -62.31221 38046 ft 401 kts 233°
2026-05-07 11:00 41.63656 -62.36949 38045 ft 401 kts 233°
2026-05-07 11:00 41.59904 -62.42700 38068 ft 400 kts 234°
2026-05-07 11:01 41.56165 -62.48436 38037 ft 400 kts 233°
2026-05-07 11:01 41.52447 -62.54133 38015 ft 400 kts 233°
2026-05-07 11:02 41.48719 -62.59830 38006 ft 400 kts 233°
2026-05-07 11:02 41.45003 -62.65494 38004 ft 400 kts 232°
2026-05-07 11:03 41.41273 -62.71169 38002 ft 401 kts 232°
2026-05-07 11:03 41.37514 -62.76877 38002 ft 401 kts 232°
2026-05-07 11:04 41.33765 -62.82560 38002 ft 398 kts 232°
2026-05-07 11:04 41.30029 -62.88210 38001 ft 398 kts 232°
2026-05-07 11:05 41.26313 -62.93822 38001 ft 398 kts 232°
2026-05-07 11:05 41.22565 -62.99471 37998 ft 400 kts 232°
2026-05-07 11:06 41.18803 -63.05132 38001 ft 403 kts 232°
2026-05-07 11:06 41.15004 -63.10834 38001 ft 403 kts 232°
2026-05-07 11:07 41.11225 -63.16496 38002 ft 403 kts 232°
2026-05-07 11:07 41.07417 -63.22190 38002 ft 403 kts 232°
2026-05-07 11:08 41.05122 -63.25610 38023 ft 402 kts 232°
2026-05-07 11:23 41.04278 -63.26813 38169 ft 400 kts 232°
2026-05-07 11:24 41.00497 -63.32408 38046 ft 398 kts 233°
2026-05-07 11:24 40.96746 -63.38057 38010 ft 398 kts 233°
2026-05-07 11:25 40.92992 -63.43665 38003 ft 398 kts 233°
2026-05-07 11:25 40.89245 -63.49232 38002 ft 398 kts 233°
2026-05-07 11:26 40.85476 -63.54814 38001 ft 398 kts 233°
2026-05-07 11:26 40.81710 -63.60376 38001 ft 398 kts 233°
2026-05-07 11:27 40.77940 -63.65935 38003 ft 398 kts 232°
2026-05-07 11:27 40.74161 -63.71495 38002 ft 398 kts 232°
2026-05-07 11:28 40.70348 -63.77079 38034 ft 401 kts 232°
2026-05-07 11:28 40.66520 -63.82694 38007 ft 403 kts 232°
2026-05-07 11:29 40.62714 -63.88263 38003 ft 403 kts 232°
2026-05-07 11:29 40.58867 -63.93879 38002 ft 403 kts 232°
2026-05-07 11:30 40.55022 -63.99484 38002 ft 403 kts 232°
2026-05-07 11:30 40.51193 -64.05057 38001 ft 403 kts 232°
2026-05-07 11:31 40.47345 -64.10644 38001 ft 403 kts 232°
2026-05-07 11:31 40.43498 -64.16222 38001 ft 403 kts 232°
2026-05-07 11:32 40.37753 -64.24531 38002 ft 403 kts 232°
2026-05-07 11:33 40.33909 -64.30057 38003 ft 397 kts 233°
2026-05-07 11:33 40.30127 -64.35508 38002 ft 396 kts 233°
2026-05-07 11:34 40.26340 -64.40959 38002 ft 395 kts 233°
2026-05-07 11:34 40.22569 -64.46379 37994 ft 397 kts 233°
2026-05-07 11:35 40.18738 -64.51875 38001 ft 403 kts 233°
2026-05-07 11:35 40.14843 -64.57426 38039 ft 403 kts 233°
2026-05-07 11:36 40.10975 -64.62954 38009 ft 404 kts 233°
2026-05-07 11:36 40.07116 -64.68459 38004 ft 404 kts 232°
2026-05-07 11:37 40.03229 -64.73990 38002 ft 404 kts 232°
2026-05-07 11:37 39.99347 -64.79501 38004 ft 404 kts 233°
2026-05-07 11:38 39.95475 -64.84973 38002 ft 399 kts 233°
2026-05-07 11:38 39.91652 -64.90383 38001 ft 399 kts 233°
2026-05-07 11:39 39.87825 -64.95790 38001 ft 399 kts 233°
2026-05-07 11:39 39.83955 -65.01247 38001 ft 399 kts 233°
2026-05-07 11:40 39.80103 -65.06668 38001 ft 399 kts 233°
2026-05-07 11:40 39.76254 -65.12075 38001 ft 399 kts 233°
2026-05-07 11:41 39.72411 -65.17458 38001 ft 399 kts 233°
2026-05-07 11:41 39.68540 -65.22874 38001 ft 399 kts 233°
2026-05-07 11:42 39.64684 -65.28272 38001 ft 399 kts 233°
2026-05-07 11:42 39.60812 -65.33682 38001 ft 400 kts 232°
2026-05-07 11:43 39.56925 -65.39079 37994 ft 399 kts 232°
2026-05-07 11:43 39.53043 -65.44481 37916 ft 400 kts 232°
2026-05-07 11:44 39.49182 -65.49841 37876 ft 400 kts 232°